#timestamp,LO_Frequency,Hit,StdDev 
1598022015.3,286047000.4,N
1598022035.1,286047000.4,N
1598022055.9,286047001.0,N
1598022075.7,286047000.5,N
1598022095.6,286047002.8,N
1598022115.4,286047000.1,N
1598022135.2,286047000.9,N
1598022155.1,286046998.7,N
1598022156.0,286046998.7,N
1598022175.8,286047000.8,N
1598022195.7,286046998.3,N
1598022215.5,286046999.4,N
1598022235.3,286046997.0,N
1598022255.2,286046997.7,N
1598022275.0,286046997.2,N
1598022275.9,286046997.2,N
1598022295.8,286046997.4,N
1598022315.6,286046998.0,N
1598022335.4,286046997.5,N
1598022355.3,286046994.9,Y
1598022375.1,286046997.6,P
1598022395.9,286046995.0,P
1598022415.7,286046997.9,N
1598022435.5,286046997.8,N
1598022455.4,286046995.1,Y
1598022475.2,286046999.0,P
1598022495.1,286046999.2,N
1598022496.0,286046999.2,N
1598022515.8,286046999.5,N
1598022535.7,286046998.0,Y
1598022555.5,286046997.0,P
1598022575.3,286046997.3,N
1598022595.2,286046997.4,P
1598022615.0,286046996.9,Y
1598022615.9,286046996.9,P
1598022635.8,286047000.3,N
1598022655.6,286047000.1,N
1598022675.4,286047000.2,N
1598022695.3,286047000.1,N
1598022715.1,286047000.2,N
1598022735.8,286047000.9,N
1598022755.7,286047000.0,N
1598022775.5,286047002.4,N
1598022795.4,286047002.6,N
1598022815.2,286047000.6,N
1598022835.0,286047000.1,N
1598022835.9,286047000.1,N
1598022855.8,286046999.8,N
1598022875.6,286047000.5,N
1598022895.5,286046999.7,N
1598022915.3,286047002.5,N
1598022935.1,286047002.5,N
1598022955.9,286047002.5,N
1598022975.7,286047002.4,N
1598022995.6,286046999.8,N
1598023015.4,286046999.8,N
1598023035.2,286047000.4,N
1598023055.1,286047000.6,N
1598023056.0,286047000.6,N
1598023075.8,286047001.1,N
1598023095.6,286046998.7,N
1598023115.5,286047001.1,N
1598023135.3,286047000.8,N
1598023155.2,286047000.8,N
1598023175.9,286047000.4,N
1598023195.7,286047000.5,N
1598023215.6,286047000.2,N
1598023235.4,286047000.3,N
1598023255.2,286046999.9,N
1598023275.1,286047000.2,N
1598023276.0,286047000.2,N
1598023295.8,286047002.4,N
1598023315.7,286047002.7,N
1598023335.5,286047002.2,N
1598023355.3,286047002.8,N
1598023375.2,286047002.7,N
1598023395.0,286047002.7,N
1598023395.9,286047002.7,N
1598023415.8,286047002.6,N
1598023435.6,286047002.1,N
1598023455.4,286047001.7,N
1598023475.3,286047001.5,N
1598023495.1,286047001.9,N
1598023515.8,286047001.6,N
1598023535.7,286047001.5,N
1598023555.5,286047001.7,N
1598023575.4,286047001.8,N
1598023595.2,286047001.4,N
1598023615.0,286047001.8,N
1598023615.9,286047001.8,N
1598023635.8,286047001.5,N
1598023655.6,286047001.4,N
1598023675.5,286047004.4,Y
1598023695.3,286047000.1,P
1598023715.1,286047002.6,P
1598023735.9,286047011.9,P
1598023755.7,286046999.7,N
1598023775.6,286046999.8,N
1598023795.4,286046999.7,N
1598023815.2,286046999.8,N
1598023835.1,286047001.9,N
1598023855.5,286047001.5,N
1598023875.3,286047002.0,N
1598023895.1,286047001.3,N
1598023915.9,286047002.1,N
1598023935.7,286047002.4,N
1598023955.5,286046999.8,N
1598023975.4,286047002.2,N
1598023995.2,286047002.0,N
1598024015.1,286047002.5,N
1598024016.0,286047002.5,N
1598024035.8,286047002.7,N
1598024055.6,286046999.7,N
1598024075.5,286047002.7,N
1598024095.3,286047002.6,N
1598024115.2,286047002.2,N
1598024135.9,286047002.8,N
1598024155.7,286047002.3,N
1598024175.6,286047002.6,N
1598024195.4,286047001.7,N
1598024215.2,286047002.5,N
1598024235.1,286047001.8,N
1598024236.0,286047001.8,N
1598024255.8,286047001.9,N
1598024275.7,286047001.3,N
1598024295.5,286047003.8,N
1598024315.3,286047004.3,Y
1598024335.2,286047002.2,P
1598024355.0,286047002.4,P
1598024355.9,286047002.4,P
1598024375.7,286047001.0,Y
1598024395.6,286046999.2,P
1598024415.4,286046999.1,N
1598024435.3,286046999.5,N
1598024455.1,286046999.0,N
1598024456.0,286046999.0,N
1598024475.8,286046996.7,N
1598024495.7,286046996.8,N
1598024515.5,286046997.3,N
1598024535.3,286046996.7,N
1598024555.2,286046997.7,N
1598024575.0,286046997.6,N
1598024575.9,286046997.6,N
1598024595.8,286046997.7,N
1598024615.6,286046997.1,N
1598024635.4,286046996.7,N
1598024655.3,286046997.4,N
1598024675.1,286046997.2,N
1598024695.8,286046996.8,N
1598024715.7,286046997.2,N
1598024735.5,286046996.6,N
1598024755.4,286046996.6,N
1598024775.2,286046997.0,N
1598024795.0,286046996.9,N
1598024795.9,286046996.9,N
1598024815.8,286046996.7,N
1598024835.6,286046997.1,N
1598024855.5,286046996.7,N
1598024875.3,286046996.6,N
1598024895.1,286046997.7,N
1598024915.9,286046998.0,N
1598024935.7,286046997.6,N
1598024955.5,286046996.7,Y
1598024975.4,286047001.2,P
1598024995.2,286046998.5,N
1598025015.1,286047001.0,N
1598025016.0,286047001.0,N
1598025035.8,286047000.9,N
1598025055.6,286047000.3,N
1598025075.5,286046999.7,N
1598025095.3,286046999.7,N
1598025115.1,286047000.1,N
1598025135.9,286046999.9,N
1598025155.7,286047001.0,N
1598025175.6,286047000.1,N
1598025195.4,286047002.0,N
1598025215.2,286047001.4,N
1598025235.1,286047004.4,Y
1598025236.0,286047004.4,P
1598025255.8,286047004.2,N
1598025275.6,286047003.5,N
1598025295.5,286047003.0,N
1598025315.3,286047003.5,N
1598025335.2,286047003.0,N
1598025355.9,286047004.7,Y
1598025375.7,286047001.3,P
1598025395.6,286047004.0,P
1598025415.4,286047004.4,P
1598025435.3,286047004.0,Y
1598025455.1,286046998.1,P
1598025456.0,286046998.1,N
1598025475.8,286046998.1,N
1598025495.7,286046998.1,N
1598025515.5,286046998.9,N
1598025535.3,286046998.1,N
1598025555.2,286047001.0,N
1598025575.0,286046998.2,N
1598025575.9,286046998.2,N
1598025595.8,286047000.6,N
